COSMOS 2527 (756)

Last updated on Jan. 27, 2020, 4:39 a.m. UTC

1 43508U 18053A   20026.49501765  .00000006  00000-0  00000-0 0  9990
2 43508  64.8496 152.0546 0006396 219.1889 170.0698  2.13102543 12548
UTC
Height (km)
Latitude
Longitude
Inclination
Orbital Period
UTC large
Height (km)
Speed (km/s)
/
Latitude / Longitude
Inclination (degrees)
Orbital Period (minutes)
Azimuth
Elevation
Range (km)
Doppler Factor
iOS Compass Heading
iOS Angle

Next 30 passes for location: Hong Kong

Rise time Rise Azimuth (degrees) Set time Set Azimuth (degrees) Duration Max altitude (degrees)

No matching passes for this satellites